User: anonymous   Login
Location: Lawrence Hall of Science
(37.8785°N, 122.2415°W)
Time: 17:49:12
(UTC-07:00)
Language:

Cosmos 1461 - Orbit

View from above orbital plane
View from above orbital plane
View from above satellite
View from above satellite

Ground track
Ground track

The orbit data is extracted from the following two-line orbital elements,

1 14064U 83044A   17295.39748995 +.00001110 +00000-0 +10845-3 0  9996
2 14064 065.0006 251.1937 0105764 344.7732 015.0206 14.93814544742353
Epoch (UTC): 22 October 2017 09:32:23
Eccentricity: 0.0105764
inclination: 65.0006°
perigee height: 512 km
apogee height: 660 km
right ascension of ascending node: 251.1937°
argument of perigee: 344.7732°
revolutions per day: 14.93814544
mean anomaly at epoch: 15.0206°
orbit number at epoch: 74235

The dashed part of the orbit path shows where the satellite is in the earth's shadow,  

DLR